Погода в Куреть

Россия / Иркутская область     52°49′11″N   106°12′13″E
темп.,
°C
ветер,
м/с
пор.,
м/с
влажн.,
%
обл.,
%
осадки,
мм/ч
давл.,
гПа
погр.,
м
14 апреля, ср
ср1423:00−1сз6128196 0.0 1016897
02:00−2сз41082100 0.0 1018761
05:00−3зсз51085100 0.0 1019612
08:00−2сз5969100 0.0 1020873
11:00+1сз6848100 0.0 10191740
14:00+2сз7938100 0.1 10172408
17:00+2сз6113680 0.0 10162450
20:00−2сз410594 0.0 1018387
15 апреля, чт
чт1523:00−4зсз278216 0.0 1018177
02:00−6зсз239063 0.0 101778
05:00−5з1184100 0.0 101422
08:00−3ю2372100 0.0 1012273
11:000з4879100 0.4 1011960
14:00+1ссз61165100 2.0 10121409
17:00+2сз7114721 0.3 10142062
20:00−2сз611645 0.3 1019831
16 апреля, пт
пт1623:00−4сз41174100 0.0 1022535
02:00−5зсз3885100 0.0 1023352
05:00−6зсз269393 0.0 1024181
08:00−3з2673100 0.0 1023445
11:00+3зюз365392 0.0 10201150
14:00+6з464993 0.0 10181443
17:00+7з354415 0.0 10161277
20:00+1ююз11645 0.0 101711
17 апреля, сб
сб1723:000юв01635 0.0 101510
02:000ссз006340 0.0 101310
05:00−1юз00665 0.0 101210
08:00+4ю11515 0.0 1011129
11:00+11ю123455 0.0 1008737
14:00+13ююв32315 0.0 10051293
17:00+12ююв32325 0.0 1005932
20:00+5в11515 0.0 100710
18 апреля, вс
вс1823:00+4ююв015535 0.0 100710
02:00+3зсз2260100 0.0 100838
05:00+1сз3589100 0.0 1010352
08:00+1сз3475100 0.0 1012527
11:00+5ссз445565 0.0 10131013
14:00+6ссз235297 0.0 10131193
17:00+6всв125385 0.0 10131126
20:000ссз11745 0.0 101410